,,Stat5,,Stat1,,Stat2,,Stat3,,Stat4,,Wind1,,Wind1,
time,status,PA1M_AVG,status,PR1M_SUM,status,RH1M_AVG,status,SR1M_AVG,status,TA1M_AVG,status,W1dAve1m,status,W1sAve1m,
2002-10-31, 00:00:01,VALID,917.945,VALID,0,VALID,95.5446,VALID,-0.101885,VALID,19.0653,VALID,143,VALID,1.41059,
2002-10-31, 00:01:01,VALID,917.911,VALID,0,VALID,95.7951,VALID,-0.0849042,VALID,19.0137,VALID,141,VALID,1.45518,
2002-10-31, 00:02:00,VALID,917.914,VALID,0,VALID,96.1791,VALID,-0.101885,VALID,18.9915,VALID,141,VALID,1.39679,
2002-10-31, 00:03:00,VALID,917.873,VALID,0,VALID,96.3749,VALID,-0.101885,VALID,18.9396,VALID,135,VALID,1.2846,
2002-10-31, 00:04:00,VALID,917.868,VALID,0,VALID,96.6089,VALID,-0.0339617,VALID,18.9227,VALID,139,VALID,1.13066,
2002-10-31, 00:05:00,VALID,917.854,VALID,0,VALID,96.8441,VALID,0,VALID,18.8992,VALID,160,VALID,1.22143,
2002-10-31, 00:06:00,VALID,917.814,VALID,0,VALID,96.8022,VALID,0,VALID,18.893,VALID,139,VALID,1.20112,
2002-10-31, 00:07:00,VALID,917.824,VALID,0,VALID,96.923,VALID,0,VALID,18.8669,VALID,149,VALID,1.37061,
2002-10-31, 00:08:01,VALID,917.807,VALID,0,VALID,97.0107,VALID,-0.0339617,VALID,18.8415,VALID,143,VALID,0.651242,
2002-10-31, 00:09:00,VALID,917.795,VALID,0,VALID,97.0679,VALID,0,VALID,18.8288,VALID,124,VALID,0.340049,
2002-10-31, 00:10:00,VALID,917.78,VALID,0,VALID,97.012,VALID,-0.0169808,VALID,18.8025,VALID,54,VALID,0.642795,
2002-10-31, 00:11:01,VALID,917.753,VALID,0,VALID,97.1099,VALID,-0.0169808,VALID,18.7735,VALID,80,VALID,0.241554,
2002-10-31, 00:12:00,VALID,917.736,VALID,0,VALID,97.3935,VALID,-0.0169808,VALID,18.7928,VALID,88,VALID,0.502734,
2002-10-31, 00:13:00,VALID,917.736,VALID,0,VALID,97.4431,VALID,0,VALID,18.7988,VALID,101,VALID,0.582031,
2002-10-31, 00:14:01,VALID,917.728,VALID,0,VALID,97.4748,VALID,-0.0169808,VALID,18.8187,VALID,121,VALID,0.39147,
2002-10-31, 00:15:00,VALID,917.727,VALID,0,VALID,97.5791,VALID,-0.0339617,VALID,18.8381,VALID,142,VALID,0.631893,
2002-10-31, 00:16:00,VALID,917.723,VALID,0,VALID,97.5817,VALID,-0.0169808,VALID,18.8574,VALID,138,VALID,0.988692,
2002-10-31, 00:17:00,VALID,917.717,VALID,0,VALID,97.1989,VALID,0,VALID,18.8547,VALID,158,VALID,1.04688,
2002-10-31, 00:18:01,VALID,917.686,VALID,0,VALID,97.2917,VALID,0,VALID,18.8249,VALID,158,VALID,0.935764,
2002-10-31, 00:19:00,VALID,917.67,VALID,0,VALID,97.1849,VALID,-0.0339617,VALID,18.8445,VALID,161,VALID,0.657689,
2002-10-31, 00:20:00,VALID,917.648,VALID,0,VALID,97.0209,VALID,-0.0679233,VALID,18.8281,VALID,173,VALID,0.5625,
2002-10-31, 00:21:01,VALID,917.633,VALID,0,VALID,96.9688,VALID,-0.0169808,VALID,18.8418,VALID,136,VALID,0.495777,
2002-10-31, 00:22:01,VALID,917.634,VALID,0,VALID,96.8721,VALID,-0.0679233,VALID,18.8157,VALID,149,VALID,0.527225,
2002-10-31, 00:23:00,VALID,917.623,VALID,0,VALID,96.9166,VALID,-0.0169808,VALID,18.7928,VALID,150,VALID,0.774071,
2002-10-31, 00:24:01,VALID,917.622,VALID,0,VALID,97.0234,VALID,0,VALID,18.8062,VALID,140,VALID,0.796258,
2002-10-31, 00:25:00,VALID,917.634,VALID,0,VALID,97.1671,VALID,0,VALID,18.8023,VALID,149,VALID,1.28803,
2002-10-31, 00:26:00,VALID,917.624,VALID,0,VALID,97.1913,VALID,-0.0169808,VALID,18.8579,VALID,154,VALID,0.951275,
2002-10-31, 00:27:01,VALID,917.621,VALID,0,VALID,96.984,VALID,-0.0169808,VALID,18.877,VALID,140,VALID,0.694696,
2002-10-31, 00:28:01,VALID,917.608,VALID,0,VALID,96.9942,VALID,-0.0509425,VALID,18.9128,VALID,122,VALID,0.678711,
2002-10-31, 00:29:01,VALID,917.584,VALID,0,VALID,97.1277,VALID,-0.0509425,VALID,18.9903,VALID,123,VALID,0.661075,
2002-10-31, 00:30:00,VALID,917.557,VALID,0,VALID,96.8212,VALID,0,VALID,19.0743,VALID,147,VALID,1.16118,
2002-10-31, 00:31:00,VALID,917.525,VALID,0,VALID,96.1613,VALID,-0.0679233,VALID,19.2,VALID,119,VALID,1.18832,
2002-10-31, 00:32:01,VALID,917.504,VALID,0,VALID,95.083,VALID,-0.0339617,VALID,19.2838,VALID,135,VALID,0.559544,
2002-10-31, 00:33:01,VALID,917.48,VALID,0,VALID,94.8083,VALID,0,VALID,19.3581,VALID,131,VALID,1.0609,
2002-10-31, 00:34:01,VALID,917.472,VALID,0,VALID,94.1534,VALID,-0.0509425,VALID,19.4395,VALID,160,VALID,0.587891,
2002-10-31, 00:35:01,VALID,917.46,VALID,0,VALID,93.8355,VALID,-0.0169808,VALID,19.4748,VALID,153,VALID,0.551098,
2002-10-31, 00:36:01,VALID,917.455,VALID,0,VALID,93.8164,VALID,0,VALID,19.5076,VALID,143,VALID,0.983964,
2002-10-31, 00:37:01,VALID,917.447,VALID,0,VALID,93.5545,VALID,-0.0339617,VALID,19.5226,VALID,147,VALID,1.08674,
2002-10-31, 00:38:00,VALID,917.422,VALID,0,VALID,93.3536,VALID,-0.0679233,VALID,19.5394,VALID,143,VALID,0.450781,
2002-10-31, 00:39:01,VALID,917.407,VALID,0,VALID,93.2569,VALID,-0.0679233,VALID,19.5076,VALID,145,VALID,0.702123,
2002-10-31, 00:40:01,VALID,917.407,VALID,0,VALID,93.3765,VALID,-0.0169808,VALID,19.4294,VALID,167,VALID,0.776843,
2002-10-31, 00:41:01,VALID,917.371,VALID,0,VALID,93.9805,VALID,-0.0509425,VALID,19.3901,VALID,165,VALID,0.609797,
2002-10-31, 00:42:01,VALID,917.369,VALID,0,VALID,93.9525,VALID,-0.0849042,VALID,19.3613,VALID,172,VALID,0.354367,
2002-10-31, 00:43:01,VALID,917.357,VALID,0,VALID,94.3721,VALID,-0.0509425,VALID,19.3518,VALID,186,VALID,0.676866,
2002-10-31, 00:44:01,VALID,917.347,VALID,0,VALID,94.2208,VALID,-0.0509425,VALID,19.372,VALID,167,VALID,0.584201,
2002-10-31, 00:45:01,VALID,917.333,VALID,0,VALID,94.4611,VALID,-0.0169808,VALID,19.3419,VALID,170,VALID,0.744191,
2002-10-31, 00:46:01,VALID,917.319,VALID,0,VALID,94.2602,VALID,-0.0509425,VALID,19.3687,VALID,143,VALID,0.696368,
2002-10-31, 00:47:01,VALID,917.304,VALID,0,VALID,94.2539,VALID,-0.0849042,VALID,19.326,VALID,163,VALID,0.886819,
2002-10-31, 00:48:01,VALID,917.292,VALID,0,VALID,94.1483,VALID,-0.0339617,VALID,19.2875,VALID,124,VALID,0.0567434,
2002-10-31, 00:49:01,VALID,917.265,VALID,0,VALID,94.1814,VALID,-0.0679233,VALID,19.2222,VALID,169,VALID,0.299543,
2002-10-31, 00:50:01,VALID,917.26,VALID,0,VALID,94.3594,VALID,0,VALID,19.1774,VALID,170,VALID,0.228165,
2002-10-31, 00:51:01,VALID,917.229,VALID,0,VALID,94.6519,VALID,-0.0339617,VALID,19.1451,VALID,157,VALID,0.504645,
2002-10-31, 00:52:01,VALID,917.238,VALID,0,VALID,94.5781,VALID,0,VALID,19.1094,VALID,115,VALID,0.506288,
2002-10-31, 00:53:01,VALID,917.242,VALID,0,VALID,94.882,VALID,-0.0169808,VALID,19.0611,VALID,86,VALID,0.70633,
2002-10-31, 00:54:01,VALID,917.236,VALID,0,VALID,95.8637,VALID,-0.0169808,VALID,19.0994,VALID,104,VALID,1.03716,
2002-10-31, 00:55:01,VALID,917.214,VALID,0,VALID,95.7073,VALID,-0.0339617,VALID,19.1874,VALID,113,VALID,0.353733,
2002-10-31, 00:56:01,VALID,917.224,VALID,0,VALID,95.3614,VALID,-0.0169808,VALID,19.2323,VALID,104,VALID,0.717949,
2002-10-31, 00:57:01,VALID,917.215,VALID,0,VALID,95.1936,VALID,-0.0169808,VALID,19.2803,VALID,75,VALID,0.797335,
2002-10-31, 00:58:01,VALID,917.222,VALID,0,VALID,94.9838,VALID,-0.0169808,VALID,19.3325,VALID,94,VALID,0.890234,
2002-10-31, 00:59:00,VALID,917.203,VALID,0,VALID,94.6506,VALID,-0.0509425,VALID,19.407,VALID,100,VALID,0.6581,
2002-10-31, 01:00:00,VALID,917.217,VALID,0,VALID,94.3276,VALID,-0.0509425,VALID,19.4522,VALID,115,VALID,0.822917,
2002-10-31, 01:01:00,VALID,917.217,VALID,0,VALID,94.0021,VALID,-0.0339617,VALID,19.5007,VALID,119,VALID,0.713405,
2002-10-31, 01:02:00,VALID,917.2,VALID,0,VALID,93.5837,VALID,-0.0339617,VALID,19.5201,VALID,141,VALID,0.536914,
2002-10-31, 01:03:00,VALID,917.192,VALID,0,VALID,93.4947,VALID,-0.0679233,VALID,19.5332,VALID,110,VALID,0.846628,
2002-10-31, 01:04:00,VALID,917.179,VALID,0,VALID,93.6066,VALID,-0.0509425,VALID,19.5653,VALID,136,VALID,1.25925,
2002-10-31, 01:05:00,VALID,917.191,VALID,0,VALID,93.0929,VALID,-0.0509425,VALID,19.6043,VALID,117,VALID,0.456055,
2002-10-31, 01:06:00,VALID,917.217,VALID,0,VALID,93.248,VALID,0,VALID,19.6426,VALID,150,VALID,1.21274,
2002-10-31, 01:07:00,VALID,917.222,VALID,0,VALID,93.0408,VALID,-0.0169808,VALID,19.7015,VALID,174,VALID,1.13112,
2002-10-31, 01:08:00,VALID,917.218,VALID,0,VALID,92.8831,VALID,0,VALID,19.7069,VALID,155,VALID,0.566189,
2002-10-31, 01:09:00,VALID,917.215,VALID,0,VALID,92.6974,VALID,0,VALID,19.6682,VALID,150,VALID,0.528446,
2002-10-31, 01:10:00,VALID,917.201,VALID,0,VALID,92.8856,VALID,-0.0339617,VALID,19.5911,VALID,162,VALID,0.971284,
2002-10-31, 01:11:00,VALID,917.21,VALID,0,VALID,93.2557,VALID,0,VALID,19.5228,VALID,151,VALID,0.898649,
2002-10-31, 01:12:00,VALID,917.202,VALID,0,VALID,93.4286,VALID,-0.0339617,VALID,19.4612,VALID,162,VALID,0.625953,
2002-10-31, 01:13:00,VALID,917.198,VALID,0,VALID,93.66,VALID,-0.0169808,VALID,19.3936,VALID,161,VALID,0.376689,
2002-10-31, 01:14:00,VALID,917.22,VALID,0,VALID,93.4502,VALID,-0.0169808,VALID,19.2994,VALID,118,VALID,0.135156,
2002-10-31, 01:15:00,VALID,917.235,VALID,0,VALID,93.7096,VALID,-0.0169808,VALID,19.1998,VALID,140,VALID,0.414063,
2002-10-31, 01:16:00,VALID,917.227,VALID,0,VALID,94.2857,VALID,-0.0339617,VALID,19.1483,VALID,154,VALID,0.380664,
2002-10-31, 01:17:00,VALID,917.244,VALID,0,VALID,94.5247,VALID,0,VALID,19.1029,VALID,128,VALID,0.144737,
2002-10-31, 01:18:00,VALID,917.245,VALID,0,VALID,94.8744,VALID,0,VALID,19.0674,VALID,119,VALID,0.077097,
2002-10-31, 01:19:00,VALID,917.264,VALID,0,VALID,95.0779,VALID,-0.0339617,VALID,19.0291,VALID,146,VALID,0.382179,
2002-10-31, 01:20:00,VALID,917.266,VALID,0,VALID,95.2813,VALID,-0.101885,VALID,19.0268,VALID,182,VALID,0.28418,
2002-10-31, 01:21:00,VALID,917.241,VALID,0,VALID,95.3119,VALID,-0.101885,VALID,18.9876,VALID,179,VALID,0.40842,
2002-10-31, 01:22:00,VALID,917.238,VALID,0,VALID,95.2801,VALID,-0.0849042,VALID,18.9557,VALID,168,VALID,0.689823,
2002-10-31, 01:23:00,VALID,917.214,VALID,0,VALID,95.4962,VALID,-0.0509425,VALID,18.9103,VALID,167,VALID,0.188322,
2002-10-31, 01:24:00,VALID,917.187,VALID,0,VALID,95.6882,VALID,-0.0849042,VALID,18.8944,VALID,166,VALID,0.37571,
2002-10-31, 01:25:00,VALID,917.155,VALID,0,VALID,95.6959,VALID,-0.0849042,VALID,18.8715,VALID,164,VALID,0.226974,
2002-10-31, 01:26:00,VALID,917.118,VALID,0,VALID,95.9349,VALID,-0.0849042,VALID,18.8621,VALID,182,VALID,0.323047,
2002-10-31, 01:27:00,VALID,917.101,VALID,0,VALID,95.9451,VALID,-0.0679233,VALID,18.8522,VALID,181,VALID,0,
2002-10-31, 01:28:00,VALID,917.086,VALID,0,VALID,95.79,VALID,-0.0849042,VALID,18.8166,VALID,181,VALID,0.00102796,
2002-10-31, 01:29:00,VALID,917.069,VALID,0,VALID,95.8561,VALID,-0.0849042,VALID,18.7908,VALID,181,VALID,0,
2002-10-31, 01:30:00,VALID,917.06,VALID,0,VALID,95.9438,VALID,-0.0679233,VALID,18.7647,VALID,181,VALID,0,
2002-10-31, 01:31:00,VALID,917.068,VALID,0,VALID,95.9108,VALID,-0.0849042,VALID,18.752,VALID,178,VALID,0.297931,
2002-10-31, 01:32:00,VALID,917.06,VALID,0,VALID,96.0748,VALID,-0.0849042,VALID,18.7327,VALID,175,VALID,0.915913,
2002-10-31, 01:33:00,VALID,917.051,VALID,0,VALID,96.1854,VALID,-0.0679233,VALID,18.723,VALID,173,VALID,1.31582,
2002-10-31, 01:34:00,VALID,917.04,VALID,0,VALID,96.2795,VALID,-0.0339617,VALID,18.7126,VALID,150,VALID,0.858073,
2002-10-31, 01:35:00,VALID,917.028,VALID,0,VALID,96.3609,VALID,0.0169808,VALID,18.6798,VALID,145,VALID,0.703336,
2002-10-31, 01:36:00,VALID,917.001,VALID,0,VALID,96.441,VALID,0,VALID,18.6602,VALID,148,VALID,0.532895,
2002-10-31, 01:37:00,VALID,916.994,VALID,0,VALID,96.3431,VALID,0.0169808,VALID,18.6212,VALID,152,VALID,0.660937,
2002-10-31, 01:38:00,VALID,916.991,VALID,0,VALID,96.5072,VALID,0.0509425,VALID,18.5993,VALID,137,VALID,0.466427,
2002-10-31, 01:39:00,VALID,916.983,VALID,0,VALID,96.5059,VALID,0,VALID,18.5739,VALID,124,VALID,0.445313,
2002-10-31, 01:40:00,VALID,916.973,VALID,0,VALID,96.6966,VALID,0,VALID,18.5377,VALID,128,VALID,0.128348,
2002-10-31, 01:41:00,VALID,916.976,VALID,0,VALID,96.8301,VALID,0.0169808,VALID,18.5342,VALID,150,VALID,0.112981,
2002-10-31, 01:42:00,VALID,916.964,VALID,0,VALID,96.867,VALID,0.0339617,VALID,18.5047,VALID,163,VALID,0.30013,
2002-10-31, 01:43:00,VALID,916.983,VALID,0,VALID,96.8886,VALID,0.0169808,VALID,18.493,VALID,152,VALID,0.358758,
2002-10-31, 01:44:00,VALID,916.961,VALID,0,VALID,97.1366,VALID,0.0339617,VALID,18.4828,VALID,127,VALID,0.467105,
2002-10-31, 01:45:00,VALID,916.95,VALID,0,VALID,97.2472,VALID,0.0169808,VALID,18.4955,VALID,115,VALID,0.427365,
2002-10-31, 01:46:00,VALID,916.954,VALID,0,VALID,97.3121,VALID,0.0339617,VALID,18.5057,VALID,107,VALID,0.251172,
2002-10-31, 01:47:00,VALID,916.95,VALID,0,VALID,97.321,VALID,0.0679233,VALID,18.5119,VALID,107,VALID,0.198918,
2002-10-31, 01:48:00,VALID,916.941,VALID,0,VALID,97.2002,VALID,0,VALID,18.5052,VALID,107,VALID,0.0965545,
2002-10-31, 01:49:00,VALID,916.933,VALID,0,VALID,96.7729,VALID,0.0339617,VALID,18.4505,VALID,107,VALID,0,
2002-10-31, 01:50:00,VALID,916.925,VALID,0,VALID,97.1913,VALID,0,VALID,18.4279,VALID,134,VALID,0.25641,
2002-10-31, 01:51:00,VALID,916.922,VALID,0,VALID,97.602,VALID,0.0169808,VALID,18.4925,VALID,135,VALID,0.253676,
2002-10-31, 01:52:00,VALID,916.933,VALID,0,VALID,97.1086,VALID,0,VALID,18.5027,VALID,96,VALID,0.363281,
2002-10-31, 01:53:00,VALID,916.92,VALID,0,VALID,97.1341,VALID,0.0509425,VALID,18.4828,VALID,81,VALID,0.502262,
2002-10-31, 01:54:00,VALID,916.923,VALID,0,VALID,96.2312,VALID,0.0339617,VALID,18.4118,VALID,54,VALID,0.527845,
2002-10-31, 01:55:00,VALID,916.883,VALID,0,VALID,96.4792,VALID,0.0169808,VALID,18.3156,VALID,57,VALID,0.473479,
2002-10-31, 01:56:00,VALID,916.861,VALID,0,VALID,97.2371,VALID,0,VALID,18.3894,VALID,64,VALID,0.317383,
2002-10-31, 01:57:00,VALID,916.824,VALID,0,VALID,97.4354,VALID,0.0339617,VALID,18.4542,VALID,64,VALID,0.198047,
2002-10-31, 01:58:00,VALID,916.806,VALID,0,VALID,97.4596,VALID,0.0169808,VALID,18.4865,VALID,64,VALID,0.03125,
2002-10-31, 01:59:00,VALID,916.781,VALID,0,VALID,97.5257,VALID,0.0169808,VALID,18.5116,VALID,64,VALID,0,
2002-10-31, 02:00:00,VALID,916.788,VALID,0,VALID,97.0311,VALID,0.0169808,VALID,18.5472,VALID,64,VALID,0,
2002-10-31, 02:01:00,VALID,916.784,VALID,0,VALID,96.1575,VALID,0.0169808,VALID,18.4118,VALID,64,VALID,0,
2002-10-31, 02:02:00,VALID,916.804,VALID,0,VALID,95.9972,VALID,0.0339617,VALID,18.2923,VALID,64,VALID,0,
2002-10-31, 02:03:00,VALID,916.807,VALID,0,VALID,95.9833,VALID,0.0169808,VALID,18.2185,VALID,64,VALID,0.185697,
2002-10-31, 02:04:00,VALID,916.81,VALID,0,VALID,96.3825,VALID,0,VALID,18.1664,VALID,64,VALID,0,
2002-10-31, 02:05:00,VALID,916.791,VALID,0,VALID,96.8327,VALID,0.0169808,VALID,18.1832,VALID,64,VALID,0.000651042,
2002-10-31, 02:06:00,VALID,916.777,VALID,0,VALID,96.9751,VALID,0.0169808,VALID,18.1991,VALID,64,VALID,0.0146234,
2002-10-31, 02:07:00,VALID,916.763,VALID,0,VALID,96.7653,VALID,0.0169808,VALID,18.1767,VALID,97,VALID,0.177998,
2002-10-31, 02:08:00,VALID,916.75,VALID,0,VALID,96.8289,VALID,0,VALID,18.1313,VALID,124,VALID,0.479968,
2002-10-31, 02:09:00,VALID,916.75,VALID,0,VALID,96.9014,VALID,0.0169808,VALID,18.1149,VALID,118,VALID,0.384046,
2002-10-31, 02:10:00,VALID,916.759,VALID,0,VALID,96.3965,VALID,0,VALID,18.0603,VALID,99,VALID,0.355183,
2002-10-31, 02:11:00,VALID,916.773,VALID,0,VALID,95.6692,VALID,0,VALID,17.8896,VALID,53,VALID,0.389824,
2002-10-31, 02:12:00,VALID,916.775,VALID,0,VALID,96.2846,VALID,-0.0169808,VALID,17.8089,VALID,15,VALID,0.658995,
2002-10-31, 02:13:00,VALID,916.775,VALID,0,VALID,97.3731,VALID,-0.0169808,VALID,17.912,VALID,15,VALID,0.0442073,
2002-10-31, 02:14:00,VALID,916.744,VALID,0,VALID,97.5931,VALID,0,VALID,17.9643,VALID,15,VALID,0,
2002-10-31, 02:15:00,VALID,916.732,VALID,0,VALID,97.7864,VALID,-0.0339617,VALID,18.013,VALID,15,VALID,0.000844595,
2002-10-31, 02:16:00,VALID,916.725,VALID,0,VALID,97.8729,VALID,0,VALID,18.0381,VALID,15,VALID,0,
2002-10-31, 02:17:00,VALID,916.722,VALID,0,VALID,97.4927,VALID,0,VALID,17.9961,VALID,15,VALID,0,
2002-10-31, 02:18:00,VALID,916.699,VALID,0,VALID,97.3871,VALID,-0.0169808,VALID,17.9382,VALID,23,VALID,0.0824908,
2002-10-31, 02:19:00,VALID,916.687,VALID,0,VALID,97.8601,VALID,0,VALID,17.932,VALID,133,VALID,0.301367,
2002-10-31, 02:20:00,VALID,916.682,VALID,0,VALID,98.0827,VALID,-0.0679233,VALID,17.9774,VALID,141,VALID,0.325452,
2002-10-31, 02:21:00,VALID,916.668,VALID,0,VALID,98.1806,VALID,-0.0679233,VALID,18.0097,VALID,138,VALID,0.406467,
2002-10-31, 02:22:00,VALID,916.672,VALID,0,VALID,98.2073,VALID,-0.0679233,VALID,18.0226,VALID,142,VALID,0.252878,
2002-10-31, 02:23:00,VALID,916.673,VALID,0,VALID,98.2124,VALID,-0.0169808,VALID,18.0093,VALID,198,VALID,0.617969,
2002-10-31, 02:24:00,VALID,916.655,VALID,0,VALID,98.1615,VALID,-0.0339617,VALID,17.9673,VALID,187,VALID,0.554482,
2002-10-31, 02:25:00,VALID,916.651,VALID,0,VALID,98.2696,VALID,-0.0509425,VALID,17.9316,VALID,229,VALID,0.775493,
2002-10-31, 02:26:00,VALID,916.642,VALID,0,VALID,98.3942,VALID,-0.0169808,VALID,17.9357,VALID,202,VALID,0.408594,
2002-10-31, 02:27:00,VALID,916.657,VALID,0,VALID,98.4743,VALID,-0.0339617,VALID,17.9191,VALID,196,VALID,0.271434,
2002-10-31, 02:28:00,VALID,916.653,VALID,0,VALID,98.487,VALID,-0.0169808,VALID,17.9096,VALID,72,VALID,0.124578,
2002-10-31, 02:29:00,VALID,916.664,VALID,0,VALID,98.468,VALID,-0.0509425,VALID,17.8677,VALID,42,VALID,0.0243056,
2002-10-31, 02:30:00,VALID,916.647,VALID,0,VALID,98.5824,VALID,-0.0339617,VALID,17.8515,VALID,137,VALID,0.214143,
2002-10-31, 02:31:00,VALID,916.639,VALID,0,VALID,98.6142,VALID,-0.0339617,VALID,17.8351,VALID,153,VALID,0.577492,
2002-10-31, 02:32:00,VALID,916.638,VALID,0,VALID,98.5799,VALID,-0.0339617,VALID,17.8059,VALID,161,VALID,1.04814,
2002-10-31, 02:33:00,VALID,916.618,VALID,0,VALID,98.7299,VALID,-0.0339617,VALID,17.7996,VALID,164,VALID,1.20198,
2002-10-31, 02:34:00,VALID,916.593,VALID,0,VALID,98.7884,VALID,-0.0169808,VALID,17.8056,VALID,158,VALID,0.914274,
2002-10-31, 02:35:00,VALID,916.594,VALID,0,VALID,98.9283,VALID,-0.0509425,VALID,17.8029,VALID,154,VALID,1.22051,
2002-10-31, 02:36:00,VALID,916.589,VALID,0,VALID,99.0148,VALID,-0.0509425,VALID,17.8317,VALID,138,VALID,0.751803,
2002-10-31, 02:37:00,VALID,916.572,VALID,0,VALID,99.0809,VALID,-0.0679233,VALID,17.858,VALID,157,VALID,0.844141,
2002-10-31, 02:38:00,VALID,916.546,VALID,0,VALID,99.133,VALID,-0.0849042,VALID,17.89,VALID,152,VALID,1.03125,
2002-10-31, 02:39:00,VALID,916.536,VALID,0,VALID,99.1292,VALID,-0.0679233,VALID,17.8997,VALID,144,VALID,0.734992,
2002-10-31, 02:40:00,VALID,916.538,VALID,0,VALID,99.2017,VALID,-0.0339617,VALID,17.9355,VALID,146,VALID,0.943834,
2002-10-31, 02:41:00,VALID,916.52,VALID,0,VALID,99.2182,VALID,-0.0169808,VALID,17.9714,VALID,142,VALID,0.683984,
2002-10-31, 02:42:00,VALID,916.526,VALID,0,VALID,99.1534,VALID,-0.0849042,VALID,17.9844,VALID,131,VALID,0.876736,
2002-10-31, 02:43:00,VALID,916.523,VALID,0,VALID,99.2475,VALID,-0.0339617,VALID,18.0263,VALID,137,VALID,0.911106,
2002-10-31, 02:44:00,VALID,916.525,VALID,0,VALID,99.2449,VALID,-0.0849042,VALID,18.081,VALID,130,VALID,0.731908,
2002-10-31, 02:45:00,VALID,916.53,VALID,0,VALID,99.1419,VALID,-0.0679233,VALID,18.0808,VALID,129,VALID,0.983428,
2002-10-31, 02:46:00,VALID,916.526,VALID,0,VALID,99.0707,VALID,-0.0509425,VALID,18.1098,VALID,133,VALID,0.57463,
2002-10-31, 02:47:00,VALID,916.521,VALID,0,VALID,98.9359,VALID,-0.0509425,VALID,18.0971,VALID,119,VALID,0.552148,
2002-10-31, 02:48:00,VALID,916.524,VALID,0,VALID,98.8126,VALID,-0.0169808,VALID,18.0739,VALID,106,VALID,0.837788,
2002-10-31, 02:49:00,VALID,916.515,VALID,0,VALID,98.8355,VALID,0,VALID,18.0826,VALID,111,VALID,0.956414,
2002-10-31, 02:50:00,VALID,916.502,VALID,0,VALID,98.81,VALID,0.101885,VALID,18.0884,VALID,127,VALID,1.03043,
2002-10-31, 02:51:00,VALID,916.498,VALID,0,VALID,98.7922,VALID,0.0509425,VALID,18.1184,VALID,132,VALID,1.14563,
2002-10-31, 02:52:00,VALID,916.469,VALID,0,VALID,98.8062,VALID,0.0509425,VALID,18.1338,VALID,147,VALID,1.06334,
2002-10-31, 02:53:00,VALID,916.458,VALID,0,VALID,98.7554,VALID,0.0509425,VALID,18.147,VALID,138,VALID,1.06106,
2002-10-31, 02:54:00,VALID,916.467,VALID,0,VALID,98.6511,VALID,0.0679233,VALID,18.1373,VALID,141,VALID,0.913086,
2002-10-31, 02:55:00,VALID,916.449,VALID,0,VALID,98.5265,VALID,0.0679233,VALID,18.1048,VALID,138,VALID,0.702691,
2002-10-31, 02:56:00,VALID,916.432,VALID,0,VALID,98.4375,VALID,0.0849042,VALID,18.0723,VALID,119,VALID,0.883868,
2002-10-31, 02:57:00,VALID,916.427,VALID,0,VALID,98.3497,VALID,0.0509425,VALID,18.0342,VALID,90,VALID,0.768503,
2002-10-31, 02:58:00,VALID,916.405,VALID,0,VALID,98.4082,VALID,0.0679233,VALID,18.0015,VALID,99,VALID,0.707143,
2002-10-31, 02:59:00,VALID,916.429,VALID,0,VALID,98.4629,VALID,0.0509425,VALID,17.9918,VALID,106,VALID,0.706503,
2002-10-31, 03:00:00,VALID,916.418,VALID,0,VALID,98.5405,VALID,0.0849042,VALID,17.992,VALID,112,VALID,0.723479,
2002-10-31, 03:01:00,VALID,916.419,VALID,0,VALID,98.5125,VALID,0.0339617,VALID,17.9985,VALID,88,VALID,0.699777,
2002-10-31, 03:02:00,VALID,916.431,VALID,0,VALID,98.4222,VALID,0.0679233,VALID,17.9659,VALID,97,VALID,0.725761,
2002-10-31, 03:03:00,VALID,916.457,VALID,0,VALID,98.5061,VALID,0.101885,VALID,17.9759,VALID,119,VALID,0.855469,
2002-10-31, 03:04:00,VALID,916.486,VALID,0,VALID,98.4985,VALID,-0.0169808,VALID,17.9994,VALID,127,VALID,0.784128,
2002-10-31, 03:05:00,VALID,916.509,VALID,0,VALID,98.4692,VALID,-0.0339617,VALID,18.0259,VALID,101,VALID,0.721628,
2002-10-31, 03:06:00,VALID,916.507,VALID,0,VALID,98.384,VALID,-0.0339617,VALID,18.0323,VALID,115,VALID,1.16807,
2002-10-31, 03:07:00,VALID,916.521,VALID,0,VALID,98.384,VALID,-0.0169808,VALID,18.0773,VALID,121,VALID,0.830664,
2002-10-31, 03:08:00,VALID,916.515,VALID,0,VALID,98.2454,VALID,-0.0339617,VALID,18.0997,VALID,103,VALID,0.80629,
2002-10-31, 03:09:00,VALID,916.511,VALID,0,VALID,97.9263,VALID,-0.0339617,VALID,18.0932,VALID,99,VALID,0.753806,
2002-10-31, 03:10:00,VALID,916.507,VALID,0,VALID,97.9097,VALID,-0.0169808,VALID,18.0803,VALID,113,VALID,0.862753,
2002-10-31, 03:11:00,VALID,916.494,VALID,0,VALID,97.8462,VALID,-0.0169808,VALID,18.0935,VALID,123,VALID,0.696114,
2002-10-31, 03:12:00,VALID,916.5,VALID,0,VALID,97.766,VALID,-0.0169808,VALID,18.0803,VALID,131,VALID,0.609835,
2002-10-31, 03:13:00,VALID,916.511,VALID,0,VALID,97.7648,VALID,-0.0509425,VALID,18.0803,VALID,135,VALID,0.781445,
2002-10-31, 03:14:00,VALID,916.524,VALID,0,VALID,97.6936,VALID,-0.0339617,VALID,18.0778,VALID,141,VALID,0.837582,
2002-10-31, 03:15:00,VALID,916.51,VALID,0,VALID,97.6503,VALID,-0.0509425,VALID,18.0773,VALID,142,VALID,0.913462,
2002-10-31, 03:16:00,VALID,916.516,VALID,0,VALID,97.5194,VALID,-0.0849042,VALID,18.0771,VALID,139,VALID,0.60403,
2002-10-31, 03:17:00,VALID,916.524,VALID,0,VALID,97.3629,VALID,-0.0509425,VALID,18.0674,VALID,138,VALID,0.749219,
2002-10-31, 03:18:00,VALID,916.508,VALID,0,VALID,97.2256,VALID,-0.0339617,VALID,18.0448,VALID,133,VALID,0.450391,
2002-10-31, 03:19:00,VALID,916.495,VALID,0,VALID,97.2345,VALID,0.0169808,VALID,18.0448,VALID,117,VALID,0.421675,
2002-10-31, 03:20:00,VALID,916.486,VALID,0,VALID,97.3273,VALID,0.0339617,VALID,18.0478,VALID,123,VALID,0.587171,
2002-10-31, 03:21:00,VALID,916.47,VALID,0,VALID,97.3642,VALID,0,VALID,18.0676,VALID,126,VALID,0.585537,
2002-10-31, 03:22:00,VALID,916.455,VALID,0,VALID,97.3757,VALID,0.0169808,VALID,18.1001,VALID,125,VALID,0.69391,
2002-10-31, 03:23:00,VALID,916.453,VALID,0,VALID,97.2968,VALID,0,VALID,18.129,VALID,126,VALID,0.724662,
2002-10-31, 03:24:00,VALID,916.457,VALID,0,VALID,97.1735,VALID,0,VALID,18.1449,VALID,126,VALID,0.854367,
2002-10-31, 03:25:00,VALID,916.465,VALID,0,VALID,97.0298,VALID,-0.0169808,VALID,18.164,VALID,134,VALID,0.928602,
2002-10-31, 03:26:00,VALID,916.471,VALID,0,VALID,96.8963,VALID,0,VALID,18.1836,VALID,133,VALID,1.10265,
2002-10-31, 03:27:00,VALID,916.472,VALID,0,VALID,96.8034,VALID,0,VALID,18.2132,VALID,135,VALID,0.856771,
2002-10-31, 03:28:00,VALID,916.467,VALID,0,VALID,96.6699,VALID,0,VALID,18.2321,VALID,127,VALID,0.717483,
2002-10-31, 03:29:00,VALID,916.45,VALID,0,VALID,96.5593,VALID,0,VALID,18.2642,VALID,133,VALID,0.639223,
2002-10-31, 03:30:00,VALID,916.431,VALID,0,VALID,96.3978,VALID,-0.0169808,VALID,18.2808,VALID,105,VALID,0.736225,
2002-10-31, 03:31:00,VALID,916.418,VALID,0,VALID,96.2821,VALID,0,VALID,18.2937,VALID,118,VALID,0.967988,
2002-10-31, 03:32:00,VALID,916.42,VALID,0,VALID,96.2986,VALID,0,VALID,18.2999,VALID,109,VALID,1.0617,